H1 CPF 2 NER 2023 2 7 9 038 01 glonass133 H2 1403201 9133 40001 2023 2 7 0 0 0 2023 2 10 23 45 0 900 1 1 0 0 0 1 H9 10 0 59982 0.00000 0 7872008.454 -7098655.084 23204546.136 10 0 59982 900.00000 0 10174791.685 -5438512.721 22751434.765 10 0 59982 1800.00000 0 12527057.566 -4001979.029 21856566.228 10 0 59982 2700.00000 0 14862181.474 -2812912.004 20537226.161 10 0 59982 3600.00000 0 17111470.245 -1882538.857 18818949.038 10 0 59982 4500.00000 0 19206881.831 -1209190.426 16735030.648 10 0 59982 5400.00000 0 21083736.301 -778587.162 14325888.835 10 0 59982 6300.00000 0 22683305.189 -564664.353 11638284.081 10 0 59982 7200.00000 0 23955170.761 -530901.552 8724414.394 10 0 59982 8100.00000 0 24859256.049 -632099.746 5640901.733 10 0 59982 9000.00000 0 25367440.011 -816530.698 2447689.534 10 0 59982 9900.00000 0 25464689.385 -1028366.900 -793126.898 10 0 59982 10800.00000 0 25149659.191 -1210288.407 -4018513.863 10 0 59982 11700.00000 0 24434736.217 -1306155.160 -7165732.227 10 0 59982 12600.00000 0 23345523.522 -1263630.439 -10173564.918 10 0 59982 13500.00000 0 21919787.715 -1036643.193 -12983514.213 10 0 59982 14400.00000 0 20205913.536 -587583.814 -15540944.716 10 0 59982 15300.00000 0 18260931.170 110860.548 -17796149.174 10 0 59982 16200.00000 0 16148199.570 1074309.695 -19705316.102 10 0 59982 17100.00000 0 13934843.440 2305792.823 -21231380.386 10 0 59982 18000.00000 0 11689051.560 3795388.282 -22344740.552 10 0 59982 18900.00000 0 9477349.584 5520416.425 -23023829.253 10 0 59982 19800.00000 0 7361961.102 7446178.081 -23255526.505 10 0 59982 20700.00000 0 5398366.674 9527208.235 -23035408.303 10 0 59982 21600.00000 0 3633161.889 11708993.031 -22367826.413 10 0 59982 22500.00000 0 2102302.709 13930078.878 -21265818.328 10 0 59982 23400.00000 0 829810.015 16124486.108 -19750849.461 10 0 59982 24300.00000 0 -173014.042 18224326.967 -17852392.797 10 0 59982 25200.00000 0 -907826.714 20162519.205 -15607354.170 10 0 59982 26100.00000 0 -1388933.835 21875482.407 -13059354.251 10 0 59982 27000.00000 0 -1642442.050 23305704.915 -10257881.036 10 0 59982 27900.00000 0 -1704911.070 24404074.461 -7257329.105 10 0 59982 28800.00000 0 -1621563.806 25131875.348 -4115944.216 10 0 59982 29700.00000 0 -1444130.797 25462368.936 -894693.654 10 0 59982 30600.00000 0 -1228420.600 25381891.517 2343915.743 10 0 59982 31500.00000 0 -1031719.320 24890423.827 5537048.859 10 0 59982 32400.00000 0 -910129.541 24001608.519 8622759.294 10 0 59982 33300.00000 0 -915961.413 22742215.041 11541188.473 10 0 59982 34200.00000 0 -1095286.350 21151074.349 14235723.626 10 0 59982 35100.00000 0 -1485756.879 19277528.052 16654092.360 10 0 59982 36000.00000 0 -2114784.966 17179456.609 18749372.922 10 0 59982 36900.00000 0 -2998156.048 14920968.697 20480900.954 10 0 59982 37800.00000 0 -4139137.815 12569847.703 21815055.641 10 0 59982 38700.00000 0 -5528122.108 10194861.183 22725910.518 10 0 59982 39600.00000 0 -7142816.150 7863044.731 23195736.711 10 0 59982 40500.00000 0 -8948976.504 5637072.528 23215349.109 10 0 59982 41400.00000 0 -10901656.584 3572823.228 22784288.826 10 0 59982 42300.00000 0 -12946917.164 1717241.765 21910838.152 10 0 59982 43200.00000 0 -15023929.956 106585.405 20611867.293 10 0 59982 44100.00000 0 -17067387.779 -1234873.483 18912515.121 10 0 59982 45000.00000 0 -19010121.679 -2295634.291 16845709.325 10 0 59982 45900.00000 0 -20785816.389 -3077212.298 14451534.350 10 0 59982 46800.00000 0 -22331710.873 -3593830.254 11776458.562 10 0 59982 47700.00000 0 -23591170.842 -3871570.830 8872434.974 10 0 59982 48600.00000 0 -24516025.024 -3947026.123 5795892.589 10 0 59982 49500.00000 0 -25068566.548 -3865501.753 2606637.852 10 0 59982 50400.00000 0 -25223134.576 -3678852.122 -633312.163 10 0 59982 51300.00000 0 -24967208.920 -3443039.281 -3860941.601 10 0 59982 52200.00000 0 -24301970.905 -3215519.725 -7013468.395 10 0 59982 53100.00000 0 -23242306.341 -3052570.884 -10029572.608 10 0 59982 54000.00000 0 -21816250.212 -3006671.701 -12850595.758 10 0 59982 54900.00000 0 -20063896.338 -3124049.314 -15421686.992 10 0 59982 55800.00000 0 -18035817.988 -3442496.678 -17692873.166 10 0 59982 56700.00000 0 -15791065.957 -3989554.297 -19620031.714 10 0 59982 57600.00000 0 -13394828.332 -4781133.601 -21165747.358 10 0 59982 58500.00000 0 -10915850.136 -5820640.626 -22300036.219 10 0 59982 59400.00000 0 -8423720.784 -7098637.413 -23000923.771 10 0 59982 60300.00000 0 -5986142.429 -8593055.810 -23254866.010 10 0 59982 61200.00000 0 -3666292.731 -10269955.106 -23057006.319 10 0 59982 62100.00000 0 -1520391.215 -12084792.127 -22411263.683 10 0 59982 63000.00000 0 404430.387 -13984151.055 -21330251.048 10 0 59982 63900.00000 0 2071866.308 -15907860.982 -19835025.783 10 0 59982 64800.00000 0 3457712.416 -17791413.068 -17954677.262 10 0 59982 65700.00000 0 4550627.732 -19568576.683 -15725759.613 10 0 59982 66600.00000 0 5352351.597 -21174105.438 -13191580.548 10 0 59982 67500.00000 0 5877369.032 -22546420.297 -10401359.961 10 0 59982 68400.00000 0 6152039.830 -23630157.711 -7409274.391 10 0 59982 69300.00000 0 6213229.378 -24378476.274 -4273405.863 10 0 59982 70200.00000 0 6106499.987 -24755025.404 -1054615.384 10 0 59982 71100.00000 0 5883939.930 -24735493.615 2184637.015 10 0 59982 72000.00000 0 5601722.543 -24308671.485 5381502.715 10 0 59982 72900.00000 0 5317498.982 -23476984.735 8473961.862 10 0 59982 73800.00000 0 5087735.142 -22256475.005 11402024.012 10 0 59982 74700.00000 0 4965105.482 -20676228.943 14108888.760 10 0 59982 75600.00000 0 4996053.972 -18777279.286 16542044.043 10 0 59982 76500.00000 0 5218625.257 -16611023.503 18654281.107 10 0 59982 77400.00000 0 5660657.738 -14237225.570 20404606.837 10 0 59982 78300.00000 0 6338415.042 -11721683.629 21759036.257 10 0 59982 79200.00000 0 7255714.062 -9133659.970 22691250.334 10 0 59982 80100.00000 0 8403587.009 -6543179.499 23183106.722 10 0 59982 81000.00000 0 9760492.739 -4018308.184 23224993.841 10 0 59982 81900.00000 0 11293069.768 -1622523.690 22816021.467 10 0 59982 82800.00000 0 12957400.825 587713.300 21964043.945 10 0 59982 83700.00000 0 14700737.455 2565086.908 20685515.115 10 0 59982 84600.00000 0 16463613.821 4273165.190 19005177.093 10 0 59982 85500.00000 0 18182262.395 5687678.661 16955588.093 10 0 59983 0.00000 0 19791231.060 6797285.351 14576497.809 10 0 59983 900.00000 0 21226093.309 7603791.395 11914080.261 10 0 59983 1800.00000 0 22426135.800 8121817.027 9020041.633 10 0 59983 2700.00000 0 23336913.036 8377924.466 5950615.720 10 0 59983 3600.00000 0 23912559.031 8409243.518 2765469.508 10 0 59983 4500.00000 0 24117758.783 8261654.230 -473460.791 10 0 59983 5400.00000 0 23929295.505 7987604.113 -3703179.910 10 0 59983 6300.00000 0 23337107.540 7643653.240 -6860865.617 10 0 59983 7200.00000 0 22344809.657 7287852.184 -9885097.805 10 0 59983 8100.00000 0 20969656.123 6977064.933 -12717059.776 10 0 59983 9000.00000 0 19241946.699 6764351.164 -15301687.549 10 0 59983 9900.00000 0 17203900.321 6696519.646 -17588744.176 10 0 59983 10800.00000 0 14908043.669 6811957.044 -19533797.839 10 0 59983 11700.00000 0 12415182.238 7138824.515 -21099084.687 10 0 59983 12600.00000 0 9792038.860 7693698.650 -22254239.809 10 0 59983 13500.00000 0 7108658.364 8480714.388 -22976882.661 10 0 59983 14400.00000 0 4435686.456 9491246.195 -23253046.140 10 0 59983 15300.00000 0 1841635.875 10704141.079 -23077441.665 10 0 59983 16200.00000 0 -609746.969 12086493.815 -22453555.755 10 0 59983 17100.00000 0 -2861906.188 13594932.071 -21393576.753 10 0 59983 18000.00000 0 -4867591.639 15177357.735 -19918153.499 10 0 59983 18900.00000 0 -6590578.469 16775071.792 -18055990.836 10 0 59983 19800.00000 0 -8006920.804 18325193.949 -15843289.834 10 0 59983 20700.00000 0 -9105688.860 19763275.953 -13323043.503 10 0 59983 21600.00000 0 -9889160.295 21025999.271 -10544201.520 10 0 59983 22500.00000 0 -10372459.353 22053844.253 -7560719.986 10 0 59983 23400.00000 0 -10582660.442 22793618.904 -4430514.549 10 0 59983 24300.00000 0 -10557395.105 23200741.205 -1214337.120 10 0 59983 25200.00000 0 -10343022.166 23241179.138 2025402.006 10 0 59983 26100.00000 0 -9992439.060 22892966.855 5225843.693 10 0 59983 27000.00000 0 -9562627.365 22147233.151 8324897.617 10 0 59983 27900.00000 0 -9112036.601 21008698.834 11262444.390 10 0 59983 28800.00000 0 -8697917.037 19495621.766 13981498.800 10 0 59983 29700.00000 0 -8373714.231 17639191.440 16429311.798 10 0 59983 30600.00000 0 -8186635.289 15482397.844 18558390.130 10 0 59983 31500.00000 0 -8175489.503 13078421.197 20327414.212 10 0 59983 32400.00000 0 -8368894.445 10488608.949 21702036.955 10 0 59983 33300.00000 0 -8783923.243 7780123.401 22655548.513 10 0 59983 34200.00000 0 -9425250.357 5023356.896 23169394.511 10 0 59983 35100.00000 0 -10284832.380 2289220.996 23233537.965 10 0 59983 36000.00000 0 -11342138.159 -353578.760 22846657.960 10 0 59983 36900.00000 0 -12564919.637 -2841170.261 22016181.068 10 0 59983 37800.00000 0 -13910492.278 -5116936.117 20758144.430 10 0 59983 38700.00000 0 -15327472.598 -7133628.990 19096892.534 10 0 59983 39600.00000 0 -16757901.021 -8855093.518 17064612.719 10 0 59983 40500.00000 0 -18139661.878 -10257523.629 14700717.548 10 0 59983 41400.00000 0 -19409099.559 -11330203.237 12051085.175 10 0 59983 42300.00000 0 -20503721.084 -12075699.714 9167171.778 10 0 59983 43200.00000 0 -21364871.293 -12509502.567 6105012.844 10 0 59983 44100.00000 0 -21940267.543 -12659123.004 2924132.583 10 0 59983 45000.00000 0 -22186286.339 -12562693.009 -313617.121 10 0 59983 45900.00000 0 -22069904.534 -12267123.821 -3545265.125 10 0 59983 46800.00000 0 -21570212.231 -11825902.516 -6707952.578 10 0 59983 47700.00000 0 -20679432.529 -11296620.929 -9740162.699 10 0 59983 48600.00000 0 -19403404.283 -10738342.476 -12582923.974 10 0 59983 49500.00000 0 -17761506.781 -10208919.376 -15180962.510 10 0 59983 50400.00000 0 -15786028.990 -9762374.656 -17483780.509 10 0 59983 51300.00000 0 -13521009.502 -9446460.436 -19446639.501 10 0 59983 52200.00000 0 -11020595.600 -9300496.172 -21031429.200 10 0 59983 53100.00000 0 -8346989.978 -9353578.468 -22207405.260 10 0 59983 54000.00000 0 -5568070.778 -9623238.054 -22951782.101 10 0 59983 54900.00000 0 -2754783.937 -10114600.501 -23250169.880 10 0 59983 55800.00000 0 21583.852 -10820085.857 -23096847.802 10 0 59983 56700.00000 0 2692138.646 -11719659.696 -22494869.108 10 0 59983 57600.00000 0 5193006.359 -12781624.919 -21455996.223 10 0 59983 58500.00000 0 7467745.145 -13963920.974 -20000467.716 10 0 59983 59400.00000 0 9469443.912 -15215875.976 -18156601.790 10 0 59983 60300.00000 0 11162420.955 -16480338.258 -15960244.017 10 0 59983 61200.00000 0 12523453.328 -17696097.969 -13454069.974 10 0 59983 62100.00000 0 13542487.175 -18800497.170 -10686756.159 10 0 59983 63000.00000 0 14222800.851 -19732118.905 -7712035.055 10 0 59983 63900.00000 0 14580615.429 -20433442.268 -4587652.614 10 0 59983 64800.00000 0 14644170.325 -20853351.884 -1374248.265 10 0 59983 65700.00000 0 14452304.089 -20949396.162 1865820.807 10 0 59983 66600.00000 0 14052601.100 -20689699.194 5069688.214 10 0 59983 67500.00000 0 13499183.044 -20054445.649 8175196.234 10 0 59983 68400.00000 0 12850238.870 -19036875.875 11122099.325 10 0 59983 69300.00000 0 12165397.752 -17643748.945 13853229.924 10 0 59983 70200.00000 0 11503056.008 -15895253.631 16315604.062 10 0 59983 71100.00000 0 10917770.707 -13824370.253 18461445.640 10 0 59983 72000.00000 0 10457829.679 -11475709.281 20249109.838 10 0 59983 72900.00000 0 10163100.190 -8903874.157 21643888.245 10 0 59983 73800.00000 0 10063246.693 -6171415.484 22618680.592 10 0 59983 74700.00000 0 10176392.681 -3346460.629 23154520.453 10 0 59983 75600.00000 0 10508283.074 -500116.075 23240945.052 10 0 59983 76500.00000 0 11051982.767 2296250.753 22876202.068 10 0 59983 77400.00000 0 11788124.633 4973738.355 22067289.279 10 0 59983 78300.00000 0 12685697.376 7468534.508 20829825.861 10 0 59983 79200.00000 0 13703341.083 9724327.938 19187757.180 10 0 59983 80100.00000 0 14791096.975 11694408.678 17172898.008 10 0 59983 81000.00000 0 15892538.628 13343370.187 14824322.142 10 0 59983 81900.00000 0 16947195.659 14648342.637 12187609.390 10 0 59983 82800.00000 0 17893168.140 15599706.178 9313963.907 10 0 59983 83700.00000 0 18669821.593 16201254.636 6259220.504 10 0 59983 84600.00000 0 19220448.537 16469803.219 3082758.098 10 0 59983 85500.00000 0 19494783.605 16434257.235 -153658.366 10 0 59984 0.00000 0 19451265.114 16134181.762 -3387084.229 10 0 59984 900.00000 0 19058946.464 15617933.245 -6554627.216 10 0 59984 1800.00000 0 18298975.648 14940433.307 -9594676.083 10 0 59984 2700.00000 0 17165579.281 14160679.346 -12448106.809 10 0 59984 3600.00000 0 15666508.688 13339098.472 -15059437.682 10 0 59984 4500.00000 0 13822928.480 12534857.452 -17377911.892 10 0 59984 5400.00000 0 11668751.658 11803243.051 -19358485.918 10 0 59984 6300.00000 0 9249448.648 11193223.931 -20962704.417 10 0 59984 7200.00000 0 6620379.777 10745297.197 -22159444.788 10 0 59984 8100.00000 0 3844720.561 10489710.389 -22925517.413 10 0 59984 9000.00000 0 991066.041 10445133.574 -23246110.507 10 0 59984 9900.00000 0 -1869186.428 10617837.051 -23115071.617 10 0 59984 10800.00000 0 -4664567.559 11001408.765 -22535020.961 10 0 59984 11700.00000 0 -7326266.842 11577022.837 -21517294.941 10 0 59984 12600.00000 0 -9790750.908 12314247.496 -20081721.346 10 0 59984 13500.00000 0 -12002161.701 13172358.104 -18256230.797 10 0 59984 14400.00000 0 -13914395.871 14102099.871 -16076312.025 10 0 59984 15300.00000 0 -15492780.020 15047826.003 -13584321.472 10 0 59984 16200.00000 0 -16715273.315 15949921.316 -10828660.440 10 0 59984 17100.00000 0 -17573148.584 16747409.308 -7862835.561 10 0 59984 18000.00000 0 -18071124.757 17380632.927 -4744420.681 10 0 59984 18900.00000 0 -18226946.368 17793896.087 -1533940.223 10 0 59984 19800.00000 0 -18070428.964 17937954.559 1706304.344 10 0 59984 20700.00000 0 -17642011.553 17772251.108 4913442.036 10 0 59984 21600.00000 0 -16990877.863 17266800.461 8025250.419 10 0 59984 22500.00000 0 -16172726.140 16403644.344 10981360.498 10 0 59984 23400.00000 0 -15247281.879 15177814.870 13724425.019 10 0 59984 24300.00000 0 -14275658.465 13597765.122 16201227.698 10 0 59984 25200.00000 0 -13317676.886 11685248.026 18363712.067 10 0 59984 26100.00000 0 -12429257.218 9474647.614 20169910.379 10 0 59984 27000.00000 0 -11659991.368 7011789.493 21584754.992 10 0 59984 27900.00000 0 -11050998.838 4352278.900 22580757.025 10 0 59984 28800.00000 0 -10633155.342 1559434.255 23138539.504 10 0 59984 29700.00000 0 -10425768.535 -1298099.156 23247215.008 10 0 59984 30600.00000 0 -10435756.434 -4148957.571 22904600.563 10 0 59984 31500.00000 0 -10657363.230 -6921782.065 22117265.500 10 0 59984 32400.00000 0 -11072424.786 -9547944.831 20900410.918 10 0 59984 33300.00000 0 -11651173.198 -11964166.084 19277582.502 10 0 59984 34200.00000 0 -12353547.231 -14114913.504 17280221.431 10 0 59984 35100.00000 0 -13130954.082 -15954484.883 14947061.254 10 0 59984 36000.00000 0 -13928408.839 -17448687.481 12323381.551 10 0 59984 36900.00000 0 -14686961.732 -18576044.213 9460132.191 10 0 59984 37800.00000 0 -15346310.849 -19328476.360 6412944.738 10 0 59984 38700.00000 0 -15847489.681 -19711434.429 3241049.994 10 0 59984 39600.00000 0 -16135515.394 -19743471.931 6122.943 10 0 59984 40500.00000 0 -16161884.972 -19455280.528 -3228921.991 10 0 59984 41400.00000 0 -15886812.678 -18888227.778 -6401161.228 10 0 59984 42300.00000 0 -15281113.045 -18092459.988 -9448893.000 10 0 59984 43200.00000 0 -14327648.686 -17124651.136 -12312844.152 10 0 59984 44100.00000 0 -13022280.679 -16045493.834 -14937328.468 10 0 59984 45000.00000 0 -11374280.454 -14917039.174 -17271333.300 10 0 59984 45900.00000 0 -9406184.998 -13799998.473 -19269512.999 10 0 59984 46800.00000 0 -7153100.755 -12751121.210 -20893069.732 10 0 59984 47700.00000 0 -4661484.806 -11820759.972 -22110504.759 10 0 59984 48600.00000 0 -1987453.828 -11050724.853 -22898226.011 10 0 59984 49500.00000 0 805309.029 -10472517.272 -23241000.787 10 0 59984 50400.00000 0 3647962.572 -10106016.916 -23132245.436 10 0 59984 51300.00000 0 6469131.577 -9958676.256 -22574147.070 10 0 59984 52200.00000 0 9197637.902 -10025255.655 -21577615.495 10 0 59984 53100.00000 0 11765225.866 -10288109.417 -20162066.686 10 0 59984 54000.00000 0 14109169.485 -10718009.986 -18355042.224 10 0 59984 54900.00000 0 16174654.075 -11275475.046 -16191672.120 10 0 59984 55800.00000 0 17916834.121 -11912541.198 -13713991.383 10 0 59984 56700.00000 0 19302482.778 -12574909.217 -10970123.419 10 0 59984 57600.00000 0 20311165.317 -13204370.282 -8013345.909 10 0 59984 58500.00000 0 20935888.605 -13741410.754 -4901057.171 10 0 59984 59400.00000 0 21183200.571 -14127885.523 -1693662.938 10 0 59984 60300.00000 0 21072736.552 -14309647.011 1546594.838 10 0 59984 61200.00000 0 20636232.503 -14239018.725 4756844.392 10 0 59984 62100.00000 0 19916047.381 -13877008.760 7874802.244 10 0 59984 63000.00000 0 18963257.451 -13195169.540 10839979.337 10 0 59984 63900.00000 0 17835403.165 -12177024.954 13594851.766 10 0 59984 64800.00000 0 16593983.613 -10819004.174 16085973.511 10 0 59984 65700.00000 0 15301803.957 -9130842.044 18265009.856 10 0 59984 66600.00000 0 14020287.222 -7135428.249 20089671.740 10 0 59984 67500.00000 0 12806863.035 -4868110.369 21524533.432 10 0 59984 68400.00000 0 11712542.559 -2375478.573 22541718.099 10 0 59984 69300.00000 0 10779780.924 286318.776 23121438.439 10 0 59984 70200.00000 0 10040716.371 3053659.954 23252382.175 10 0 59984 71100.00000 0 9515859.622 5857849.935 22931935.078 10 0 59984 72000.00000 0 9213288.220 8627737.260 22166237.044 10 0 59984 72900.00000 0 9128379.590 11292440.251 20970069.790 10 0 59984 73800.00000 0 9244094.158 13784070.317 19366577.698 10 0 59984 74700.00000 0 9531796.827 16040339.865 17386826.480 10 0 59984 75600.00000 0 9952582.601 18006946.831 15069207.323 10 0 59984 76500.00000 0 10459050.779 19639636.740 12458697.247 10 0 59984 77400.00000 0 10997453.110 20905856.325 9605989.329 10 0 59984 78300.00000 0 11510125.213 21785929.557 6566509.207 10 0 59984 79200.00000 0 11938098.270 22273706.850 3399336.759 10 0 59984 80100.00000 0 12223780.011 22376660.184 166054.126 10 0 59984 81000.00000 0 12313590.764 22115420.420 -3070457.101 10 0 59984 81900.00000 0 12160442.011 21522776.601 -6247245.430 10 0 59984 82800.00000 0 11725951.402 20642179.985 -9302520.921 10 0 59984 83700.00000 0 10982299.347 19525816.606 -12176863.706 10 0 59984 84600.00000 0 9913647.510 18232330.439 -14814385.207 10 0 59984 85500.00000 0 8517058.244 16824293.998 -17163818.791 10 0 59985 0.00000 0 6802875.375 15365533.853 -19179518.077 10 0 59985 900.00000 0 4794548.468 13918423.456 -20822344.419 10 0 59985 1800.00000 0 2527909.575 12541259.470 -22060423.810 10 0 59985 2700.00000 0 49929.077 11285829.302 -22869762.581 10 0 59985 3600.00000 0 -2582995.761 10195273.636 -23234707.725 10 0 59985 4500.00000 0 -5307149.472 9302332.313 -23148244.740 10 0 59985 5400.00000 0 -8053916.902 8628046.407 -22612127.661 10 0 59985 6300.00000 0 -10752411.490 8180969.922 -21636839.354 10 0 59985 7200.00000 0 -13332204.632 7956923.077 -20241383.227 10 0 59985 8100.00000 0 -15726043.379 7939296.417 -18452910.649 10 0 59985 9000.00000 0 -17872444.200 8099891.970 -16306191.357 10 0 59985 9900.00000 0 -19718055.685 8400265.198 -13842937.046 10 0 59985 10800.00000 0 -21219692.632 8793510.546 -11110991.089 10 0 59985 11700.00000 0 -22345957.576 9226414.830 -8163399.911 10 0 59985 12600.00000 0 -23078382.919 9641887.259 -5057383.874 10 0 59985 13500.00000 0 -23412046.773 9981563.224 -1853227.541 10 0 59985 14400.00000 0 -23355637.612 10188471.714 1386889.190 10 0 59985 15300.00000 0 -22930965.766 10209653.448 4600096.327 10 0 59985 16200.00000 0 -22171943.013 9998618.909 7724051.923 10 0 59985 17100.00000 0 -21123073.664 9517542.187 10698149.449 10 0 59985 18000.00000 0 -19837520.977 8739097.629 13464690.904 10 0 59985 18900.00000 0 -18374830.351 7647861.329 15970003.024 10 0 59985 19800.00000 0 -16798404.963 6241217.702 18165475.188 10 0 59985 20700.00000 0 -15172839.653 4529732.087 20008499.180 10 0 59985 21600.00000 0 -13561224.557 2536972.607 21463293.050 10 0 59985 22500.00000 0 -12022531.016 298787.364 22501593.590 10 0 59985 23400.00000 0 -10609188.727 -2137934.298 23103204.384 10 0 59985 24300.00000 0 -9364954.942 -4716966.382 23256389.148 10 0 59985 25200.00000 0 -8323164.351 -7374847.277 22958102.872 10 0 59985 26100.00000 0 -7505432.407 -10043291.320 22214056.133 10 0 59985 27000.00000 0 -6920866.018 -12651811.938 21038611.005 10 0 59985 27900.00000 0 -6565814.423 -15130448.454 19454509.959 10 0 59985 28800.00000 0 -6424170.591 -17412483.949 17492442.267 10 0 59985 29700.00000 0 -6468210.432 -19437041.585 15190455.450 10 0 59985 30600.00000 0 -6659934.512 -21151451.472 12593222.347 10 0 59985 31500.00000 0 -6952855.694 -22513289.281 9751177.335 10 0 59985 32400.00000 0 -7294157.126 -23492001.230 6719537.966 10 0 59985 33300.00000 0 -7627129.074 -24070047.179 3557230.840 10 0 59985 34200.00000 0 -7893780.996 -24243513.655 325742.721 10 0 59985 35100.00000 0 -8037517.522 -24022170.948 -2912080.320 10 0 59985 36000.00000 0 -8005764.086 -23428971.946 -6093261.702 10 0 59985 36900.00000 0 -7752429.868 -22499014.051 -9155926.258 10 0 59985 37800.00000 0 -7240102.627 -21278008.388 -12040510.425 10 0 59985 38700.00000 0 -6441881.348 -19820321.382 -14690926.316 10 0 59985 39600.00000 0 -5342768.132 -18186671.893 -17055656.316 10 0 59985 40500.00000 0 -3940559.539 -16441581.517 -19088756.507 10 0 59985 41400.00000 0 -2246198.907 -14650685.817 -20750749.313 10 0 59985 42300.00000 0 -283574.000 -12878019.857 -22009388.138 10 0 59985 43200.00000 0 1911232.210 -11183391.974 -22840279.581 10 0 59985 44100.00000 0 4291206.965 -9619955.705 -23227351.756 10 0 59985 45000.00000 0 6800137.024 -8232080.998 -23163160.257 10 0 59985 45900.00000 0 9374730.282 -7053612.974 -22649026.546 10 0 59985 46800.00000 0 11947041.922 -6106590.012 -21695006.607 10 0 59985 47700.00000 0 14447104.632 -5400473.579 -20319690.920 10 0 59985 48600.00000 0 16805654.062 -4931920.684 -18549839.865 10 0 59985 49500.00000 0 18956836.719 -4685107.189 -16419861.678 10 0 59985 50400.00000 0 20840788.180 -4632587.142 -13971143.039 10 0 59985 51300.00000 0 22405974.838 -4736650.916 -11251245.102 10 0 59985 52200.00000 0 23611202.167 -4951124.080 -8312980.350 10 0 59985 53100.00000 0 24427206.280 -5223530.470 -5213388.058 10 0 59985 54000.00000 0 24837762.863 -5497527.632 -2012628.105 10 0 59985 54900.00000 0 24840267.713 -5715511.397 1227185.430 10 0 59985 55800.00000 0 24445765.093 -5821279.203 4443188.209 10 0 59985 56700.00000 0 23678423.259 -5762639.350 7572983.670 10 0 59985 57600.00000 0 22574479.586 -5493855.639 10555851.482 10 0 59985 58500.00000 0 21180699.851 -4977823.790 13333922.930 10 0 59985 59400.00000 0 19552416.499 -4187887.373 15853300.516 10 0 59985 60300.00000 0 17751228.144 -3109216.062 18065100.303 10 0 59985 61200.00000 0 15842456.549 -1739687.441 19926397.048 10 0 59985 62100.00000 0 13892467.228 -90234.262 21401054.276 10 0 59985 63000.00000 0 11965965.279 1815358.646 22460423.630 10 0 59985 63900.00000 0 10123378.902 3941200.708 23083900.358 10 0 59985 64800.00000 0 8418439.250 6240555.589 23259324.506 10 0 59985 65700.00000 0 6896056.990 8657563.853 22983220.159 10 0 59985 66600.00000 0 5590583.618 11129358.083 22260868.007 10 0 59985 67500.00000 0 4524529.568 13588483.839 21106209.472 10 0 59985 68400.00000 0 3707792.221 15965526.911 19541583.701 10 0 59985 69300.00000 0 3137425.721 18191838.398 17597301.738 10 0 59985 70200.00000 0 2797961.944 20202244.722 15311065.319 10 0 59985 71100.00000 0 2662268.828 21937629.844 12727240.692 10 0 59985 72000.00000 0 2692909.728 23347281.830 9896000.871 10 0 59985 72900.00000 0 2843946.134 24390905.383 6872352.463 10 0 59985 73800.00000 0 3063107.221 25040215.660 3715065.752 10 0 59985 74700.00000 0 3294233.919 25280046.028 485528.990 10 0 59985 75600.00000 0 3479893.290 25108922.865 -2753450.436 10 0 59985 76500.00000 0 3564051.565 24539082.954 -5938873.961 10 0 59985 77400.00000 0 3494691.530 23595932.672 -9008784.142 10 0 59985 78300.00000 0 3226262.238 22316971.874 -11903476.449 10 0 59985 79200.00000 0 2721856.197 20750228.125 -14566666.119 10 0 59985 80100.00000 0 1955020.792 18952267.610 -16946586.671 10 0 59985 81000.00000 0 911126.404 16985866.923 -18996998.277 10 0 59985 81900.00000 0 -411767.419 14917443.982 -20678086.284 10 0 59985 82800.00000 0 -2002585.016 12814356.258 -21957232.500 10 0 59985 83700.00000 0 -3837461.347 10742179.653 -22809644.711 10 0 59985 84600.00000 0 -5880513.547 8762081.763 -23218832.768 10 0 59985 85500.00000 0 -8085125.576 6928398.920 -23176922.676 99